FW5380 Weather Reports


Display with metric or nautical units.
time (UTC)temp
F
wind
direction
speed
MPH
gust
MPH
rain 1hr
in
rain 24hr
in
rain mn
in
humidity
%
barometer
mb
20260906144536 52 135 0.0 0.0 0.12 0.19 0.17 95 1019.7
20260906143040 52 135 0.0 0.0 0.11 0.17 0.14 95 1019.4
20260906141538 52 135 0.0 0.0 0.09 0.14 0.09 94 1019.2
20260906140034 52 151 0.0 1.0 0.05 0.09 0.07 94 1019.1
20260906134536 52 180 0.0 1.0 0.04 0.07 0.06 94 1018.9
20260906133036 52 180 0.0 1.0 0.03 0.06 0.05 94 1018.7
20260906131537 52 180 0.0 0.0 0.03 0.05 0.04 94 1018.7
20260906130035 52 172 0.0 3.0 0.02 0.04 0.03 94 1018.8
20260906120037 52 135 0.0 0.0 0.00 0.02 0.02 93 1018.9
20260906114536 53 135 0.0 0.0 0.00 0.02 0.02 93 1019.0
20260906111536 53 134 0.0 4.0 0.00 0.02 0.02 93 1019.1
20260906110036 53 109 0.0 3.0 0.00 0.02 0.02 92 1019.2
20260906104536 53 90 0.0 0.0 0.00 0.02 0.02 92 1019.1
20260906103038 53 91 0.0 4.0 0.00 0.02 0.02 92 1019.1
20260906100034 53 209 3.0 7.0 0.01 0.02 0.02 91 1019.1
20260906094537 53 186 3.0 8.0 0.01 0.02 0.02 90 1019.3
20260906093034 53 208 3.0 6.0 0.01 0.02 0.02 90 1019.4
20260906091538 53 177 4.0 9.0 0.01 0.02 0.01 90 1019.5
20260906090037 53 181 5.0 8.0 0.01 0.01 0.01 89 1019.4
20260906084535 53 187 5.0 10.0 0.01 0.01 0.01 89 1019.4
20260906083039 53 192 5.0 10.0 0.01 0.01 0.01 89 1019.3
20260906081535 53 201 2.0 8.0 0.01 0.01 0.00 89 1019.3
20260906080038 53 167 2.0 5.0 0.00 0.00 0.00 89 1019.4
20260906073040 53 180 0.0 2.0 0.00 0.00 0.00 87 1019.3
20260906071537 53 159 0.0 2.0 0.00 0.00 0.00 87 1019.5
20260906070037 52 177 0.0 4.0 0.00 0.00 0.00 87 1019.6
20260906064539 52 178 1.0 4.0 0.00 0.00 0.00 87 1019.7
20260906063034 51 182 1.0 5.0 0.00 0.00 0.00 88 1019.7
20260906061535 51 146 0.0 5.0 0.00 0.00 0.00 89 1019.5
20260906060035 51 135 0.0 0.0 0.00 0.00 0.00 89 1019.7
20260906054536 51 145 0.0 2.0 0.00 0.00 0.00 89 1019.7
20260906053037 50 174 2.0 4.0 0.00 0.00 0.00 88 1019.8
20260906051536 51 196 1.0 4.0 0.00 0.00 0.00 86 1019.9
20260906050032 52 180 1.0 2.0 0.00 0.00 0.00 86 1019.9
20260906044539 53 180 3.0 4.0 0.00 0.00 0.00 86 1020.0
20260906043036 53 180 3.0 4.0 0.00 0.00 0.00 86 1020.0
20260906041615 53 179 3.0 4.0 0.00 0.00 0.00 85 1019.9
20260906040035 53 180 2.0 3.0 0.00 0.00 0.00 83 1019.8
20260906033037 54 166 2.0 4.0 0.00 0.00 0.00 79 1019.7
20260906031540 56 161 1.0 3.0 0.00 0.00 0.00 75 1019.4
20260906030035 57 227 0.0 2.0 0.00 0.00 0.00 69 1019.3
20260906023037 61 316 0.0 4.0 0.00 0.00 0.00 59 1019.2
20260906021537 62 335 3.0 7.0 0.00 0.00 0.00 56 1019.1
20260906020034 64 332 6.0 9.0 0.00 0.00 0.00 55 1019.1
20260906014534 65 331 6.0 11.0 0.00 0.00 0.00 54 1019.1
20260906011533 66 312 5.0 11.0 0.00 0.00 0.00 53 1019.2
20260906010035 67 295 6.0 13.0 0.00 0.00 0.00 51 1019.3
20260906004535 69 302 7.0 16.0 0.00 0.00 0.00 46 1019.1
20260906003036 71 323 8.0 18.0 0.00 0.00 0.00 42 1019.0
20260906001535 71 328 7.0 13.0 0.00 0.00 0.00 41 1018.8
20260906000035 72 343 6.0 13.0 0.00 0.00 0.00 41 1018.7
20260905234533 72 339 5.0 14.0 0.00 0.00 0.00 42 1018.6
20260905231535 70 341 4.0 11.0 0.00 0.00 0.00 44 1019.0
20260905230037 70 340 4.0 8.0 0.00 0.00 0.00 44 1019.1
20260905224538 70 18 5.0 13.0 0.00 0.00 0.00 46 1019.1
20260905223034 70 19 4.0 10.0 0.00 0.00 0.00 47 1019.2
20260905221537 70 25 3.0 7.0 0.00 0.00 0.00 48 1019.3
20260905220037 69 356 4.0 11.0 0.00 0.01 0.00 50 1019.5
20260905214537 68 18 4.0 11.0 0.00 0.01 0.00 52 1019.8
20260905211535 67 51 2.0 5.0 0.00 0.01 0.00 53 1020.1
20260905210034 67 38 2.0 6.0 0.00 0.01 0.00 54 1020.2
20260905204534 67 19 1.0 6.0 0.00 0.01 0.00 53 1020.2
20260905201536 69 3 1.0 10.0 0.00 0.01 0.00 53 1020.3
20260905200038 67 26 3.0 8.0 0.00 0.01 0.00 57 1020.4
20260905194537 67 13 4.0 10.0 0.00 0.01 0.00 58 1020.5
20260905193035 65 5 3.0 8.0 0.00 0.01 0.00 61 1020.6
20260905191537 64 32 3.0 10.0 0.00 0.01 0.00 62 1020.8
20260905184534 62 37 2.0 6.0 0.00 0.01 0.00 66 1021.2
20260905183040 62 20 2.0 5.0 0.00 0.01 0.00 67 1021.4
20260905181540 61 40 2.0 5.0 0.00 0.01 0.00 69 1021.5
20260905180037 60 24 2.0 6.0 0.00 0.01 0.00 70 1021.5
20260905174538 61 30 2.0 6.0 0.00 0.01 0.00 70 1021.5
20260905173035 62 42 1.0 5.0 0.00 0.01 0.00 70 1021.4
20260905171538 61 1 1.0 5.0 0.00 0.01 0.00 73 1021.4
20260905170034 59 328 0.0 4.0 0.00 0.01 0.00 77 1021.4
20260905164537 57 50 1.0 4.0 0.00 0.01 0.00 83 1021.3
20260905161534 55 2 0.0 2.0 0.00 0.01 0.00 88 1021.3
20260905154541 53 270 0.0 2.0 0.00 0.01 0.00 93 1021.3
20260905153039 50 202 0.0 2.0 0.00 0.01 0.00 94 1021.3
20260905151536 49 202 0.0 0.0 0.00 0.01 0.00 94 1021.2
20260905150037 48 201 0.0 2.0 0.00 0.01 0.00 94 1021.3